SCP
1 1 0 0 0 0 0 0 0 0 0 1 1 1 1 1 1 1 1 1 1 1 2 2 2 2 2 2 1 1 1 1 1 1 1 1 1 0 0 0 0 0 0 0 0 0 0 0 0
0 0 0 0 0 0 0 0 0 1 1 1 1 1 1 1 1 1 1 1 1 2 2 2 2 2 2 2 1 1 1 1 1 1 1 1 1 0 0 0 0 0 0 0 0 0 0 0 0
0 0 0 0 0 0 0 0 0 1 1 2 2 2 2 1 1 1 1 1 2 2 2 2 3 2 2 2 2 1 1 1 1 1 1 1 1 1 0 0 0 0 0 0 0 0 0 0 0
0 0 0 0 0 0 0 0 0 1 1 2 3 3 2 2 2 2 2 2 2 2 2 3 3 3 2 2 2 2 1 1 1 1 1 1 1 1 1 0 0 0 0 0 0 0 0 0 0
0 0 0 0 0 0 0 0 1 1 2 3 4 4 3 3 3 3 2 2 2 2 2 3 4 4 3 2 2 2 2 2 2 1 1 1 1 1 1 0 0 0 0 0 0 0 0 0 0
0 0 0 0 0 0 0 0 1 1 2 3 4 4 4 4 3 3 2 2 2 2 3 3 4 4 3 2 2 1 2 2 2 2 1 1 1 1 1 0 0 0 0 0 0 0 0 0 0
0 0 0 0 0 0 0 0 1 1 2 3 4 4 4 4 4 3 3 2 2 3 3 3 3 3 2 2 1 1 2 2 2 2 2 1 1 1 1 0 0 0 0 0 0 0 0 0 0
0 0 0 0 0 0 0 0 1 2 3 3 3 3 3 4 4 4 4 3 3 3 3 3 3 2 2 2 1 1 2 2 2 2 2 1 1 1 1 0 0 0 0 0 0 0 0 0 0
0 0 0 0 0 0 0 1 1 3 4 4 4 4 4 4 5 6 6 5 4 4 4 4 3 2 2 1 1 1 2 2 1 1 1 1 1 1 0 0 0 0 0 0 0 0 0 0 0
0 0 0 0 0 0 0 1 2 3 3 4 4 5 5 5 6 7 8 7 5 4 4 4 4 2 2 1 1 2 2 1 1 1 1 1 1 0 0 0 0 0 0 0 0 0 0 0 0
0 0 0 0 0 0 0 1 1 2 2 3 4 5 5 5 5 7 9 8 6 4 4 4 3 2 2 2 2 2 2 1 1 1 1 1 0 0 0 0 0 0 0 0 0 0 0 0 0
0 0 0 0 0 0 0 1 1 1 2 3 5 6 6 5 6 8 10 9 6 4 3 3 2 2 1 1 2 2 2 1 1 1 1 1 0 0 0 0 0 0 0 0 0 0 0 0 0
0 0 0 0 0 0 0 1 1 1 2 4 5 6 6 6 8 10 11 9 6 5 4 2 2 2 2 2 2 2 2 2 1 1 1 1 0 0 0 0 0 0 0 0 0 0 0 0 0
0 0 0 0 0 0 0 1 1 2 3 4 5 6 6 8 10 12 11 8 7 6 5 3 2 2 2 2 2 2 2 1 1 1 1 1 0 0 0 0 0 0 0 0 0 0 0 0 0
0 0 0 0 0 0 0 1 2 3 4 4 4 6 7 9 10 10 9 8 8 7 5 4 3 2 2 1 1 1 1 1 1 1 1 1 0 0 0 0 0 0 0 0 0 0 0 0 0
0 0 0 0 0 0 0 1 2 3 4 4 4 6 8 8 8 7 7 7 7 6 5 4 3 2 1 1 1 1 1 1 1 1 1 1 1 1 0 0 0 0 0 0 0 0 0 0 0
0 0 0 0 0 0 1 1 2 3 4 4 4 6 7 7 6 5 5 6 6 5 4 3 2 2 1 1 1 1 1 1 1 1 1 1 1 1 1 1 0 0 0 0 0 0 0 0 0
0 0 0 0 0 1 1 2 2 3 3 4 4 4 5 5 5 5 5 4 4 3 3 2 2 2 2 2 2 2 1 1 1 1 1 1 1 1 1 1 0 0 0 0 0 0 0 0 0
0 0 0 0 1 1 1 2 2 3 3 3 4 4 4 6 7 6 4 3 3 2 2 2 2 2 2 2 2 2 2 2 1 1 1 1 1 1 1 1 0 0 0 0 0 0 0 0 0
0 0 0 0 1 1 1 1 2 2 3 3 4 5 6 7 8 6 4 3 3 2 2 3 3 3 3 3 3 2 2 2 2 1 1 1 1 1 1 0 0 0 0 0 0 0 0 0 0
0 0 0 0 1 1 1 1 1 2 2 3 5 6 7 8 7 5 4 3 3 2 2 2 2 2 3 3 3 2 2 2 1 1 1 1 1 1 1 0 0 0 0 0 0 0 0 0 0
0 0 0 0 1 1 1 1 1 1 1 3 5 7 7 7 5 3 3 2 2 2 2 2 2 2 2 2 2 2 1 1 1 1 1 1 1 1 1 1 0 0 0 0 0 0 0 0 0
0 0 0 0 0 0 0 0 1 1 1 2 5 5 5 5 4 3 2 2 2 2 2 2 2 2 2 2 2 2 1 1 1 1 1 1 1 1 1 1 0 0 0 0 0 0 0 0 0
0 0 0 0 0 0 0 0 0 0 1 2 3 3 2 2 2 2 2 2 2 2 2 2 2 2 2 2 2 2 2 1 1 1 1 0 0 0 0 0 0 0 0 0 0 0 0 0 0
0 0 0 0 0 0 0 0 0 0 0 1 2 2 1 1 2 2 2 1 2 2 2 2 2 1 1 2 2 2 2 2 1 1 0 0 0 0 0 0 0 0 0 0 0 0 0 0 0
0 0 0 0 0 0 0 0 0 0 0 1 1 1 1 1 1 1 1 1 2 2 2 2 2 1 1 1 1 2 2 2 1 1 0 0 0 0 0 0 0 1 1 0 0 0 0 0 0
0 0 0 0 0 0 0 0 0 0 1 1 1 1 1 1 1 1 1 1 2 2 2 2 1 1 1 1 1 1 1 1 1 1 0 0 0 0 0 0 0 1 1 1 0 0 0 0 0
0 0 0 0 0 0 0 0 0 0 1 1 1 1 1 1 1 1 1 1 1 1 1 1 1 1 1 1 1 1 1 1 1 1 0 0 0 0 0 0 0 1 1 1 0 0 0 0 0
0 0 0 0 0 0 0 0 0 0 1 1 1 2 1 1 1 1 1 1 1 1 1 1 2 2 2 2 2 2 1 1 1 1 0 0 0 0 0 0 0 0 0 0 0 0 0 0 0
0 0 0 0 0 0 0 0 0 0 1 1 1 2 2 2 2 2 2 2 1 1 1 2 2 2 2 2 2 2 2 1 1 1 1 0 0 0 0 0 0 0 0 0 0 0 0 0 0
Wind_Speed
6 4 2 0 3 3 3 3 2 4 4 6 9 10 7 5 3 3 3 13 17 15 13 15 17 18 18 18 18 17 16 16 16 15 15 15 14 14 14 14 14 14 13 13 13 13 14 14 15
3 3 1 2 4 3 4 2 4 3 6 10 10 9 7 6 6 9 7 13 17 15 11 14 18 18 18 18 17 17 16 16 15 15 15 14 14 14 14 14 14 14 13 13 13 13 13 14 14
3 1 2 3 1 2 4 2 4 5 8 8 6 6 6 6 7 7 9 16 15 13 10 14 20 20 19 18 17 17 16 16 15 15 14 14 14 14 14 14 13 13 13 13 13 13 13 13 13
1 2 3 2 5 8 7 8 3 5 5 6 7 6 4 4 5 9 16 17 16 13 11 14 20 20 19 19 18 17 16 16 15 14 14 14 14 14 14 13 13 13 13 12 13 12 12 12 12
2 3 2 2 6 6 7 6 6 5 5 6 8 6 4 3 13 18 16 16 16 13 10 13 20 20 19 19 18 17 16 15 15 14 14 14 14 14 14 13 13 13 12 12 12 11 11 11 11
2 2 1 3 6 5 4 3 6 6 7 7 8 6 3 6 15 17 16 13 15 15 11 12 19 20 19 19 18 17 17 16 15 15 14 14 13 13 13 13 13 12 12 11 11 10 10 9 9
3 2 3 4 5 5 4 4 6 7 8 6 9 7 3 7 12 15 15 14 13 13 11 9 10 14 18 19 18 17 16 16 15 14 14 14 14 13 13 12 12 12 11 10 10 9 8 7 7
5 2 3 4 4 6 4 2 4 9 7 6 7 10 7 8 12 14 14 13 13 12 11 9 8 7 8 10 17 17 16 15 15 14 14 14 13 13 12 10 11 11 10 9 9 8 7 6 5
3 2 5 6 5 6 4 1 3 5 7 4 3 4 9 16 16 16 13 11 11 12 9 9 8 7 6 7 12 13 15 14 13 11 14 11 5 6 7 9 10 10 10 9 7 6 5 4 3
5 4 9 7 6 6 5 1 6 5 5 3 4 5 12 16 16 18 17 16 14 14 11 9 9 8 7 8 6 4 6 6 5 4 6 4 4 4 6 8 10 9 9 8 6 5 3 2 1
5 8 10 11 10 7 3 1 2 9 4 7 10 12 12 13 13 15 16 16 15 14 13 11 10 9 7 5 5 3 3 3 4 5 5 4 4 3 3 2 3 4 5 3 3 2 0 1 1
5 9 10 9 9 5 2 1 2 3 6 9 14 16 14 13 13 14 14 15 14 14 13 11 11 9 7 6 5 4 3 3 3 4 5 4 3 3 3 2 2 2 1 2 1 1 1 1 2
6 8 10 10 7 4 1 1 3 2 6 11 14 14 13 12 11 10 12 13 14 14 12 12 11 10 8 7 5 6 4 4 4 3 4 5 4 4 3 2 2 2 2 2 2 2 2 2 2
6 8 10 8 6 3 0 0 2 3 8 11 13 12 13 12 12 11 12 13 13 13 12 11 11 10 9 6 5 5 5 4 4 4 4 5 4 4 4 3 3 3 2 2 3 3 2 2 2
5 8 10 7 4 2 2 3 2 5 10 10 10 10 9 9 11 12 13 13 14 13 12 12 11 10 9 8 6 6 5 5 4 4 4 5 5 5 4 3 3 2 2 3 2 2 2 2 2
6 5 5 9 5 3 3 4 4 6 12 9 9 9 8 7 9 10 12 12 13 13 11 12 12 10 9 7 5 4 4 5 4 4 3 5 5 6 5 4 3 2 2 2 2 2 2 1 2
3 3 6 10 6 3 2 3 3 5 10 8 7 7 6 5 6 9 11 13 13 13 13 11 11 10 8 7 5 4 4 4 4 3 3 4 5 5 5 3 2 3 3 2 3 2 2 2 1
5 5 7 9 8 3 0 3 3 3 7 8 7 8 8 7 7 8 11 12 12 12 12 12 10 9 8 6 4 4 4 3 3 3 4 5 4 5 5 3 3 3 3 2 2 3 2 2 2
8 9 12 13 10 2 0 1 2 3 5 6 5 6 7 7 5 6 9 11 11 11 11 11 10 9 8 6 5 5 4 3 3 3 4 5 5 5 5 4 3 3 3 3 3 3 2 1 1
10 11 11 10 7 1 2 1 0 3 5 7 9 7 7 7 7 8 8 10 11 11 11 10 10 9 8 6 5 4 4 4 3 3 3 5 5 5 5 5 3 3 3 3 3 3 2 1 1
12 9 9 7 4 3 3 3 2 2 2 3 5 7 9 10 11 9 10 10 10 12 12 10 10 9 8 7 5 5 4 3 2 2 2 3 5 5 5 5 4 4 3 3 3 3 4 2 1
11 13 10 5 1 3 0 2 5 2 0 3 4 6 8 9 9 9 10 10 11 11 10 9 10 9 8 8 8 8 6 5 5 4 3 3 4 5 5 5 5 4 3 3 3 3 3 4 1
11 10 5 2 1 2 4 1 5 1 1 2 3 6 8 9 10 11 11 11 10 9 9 8 8 9 8 8 9 8 6 4 4 4 5 4 3 4 5 6 5 5 3 4 3 3 3 3 3
8 3 4 5 6 2 4 1 5 4 5 4 3 5 8 9 9 9 9 8 7 8 8 8 8 8 8 8 8 8 8 7 7 6 6 4 3 3 5 5 5 5 4 4 4 4 4 3 3
2 3 4 5 5 4 4 1 8 7 5 4 6 7 8 9 9 9 9 9 9 9 9 9 9 8 8 8 8 8 8 9 10 8 7 6 4 3 5 5 4 4 4 4 4 3 3 3 3
5 9 8 5 5 4 3 4 7 6 2 1 3 6 8 9 8 9 10 10 10 10 10 9 10 8 8 8 7 7 7 6 6 7 6 7 5 5 6 6 5 5 5 4 4 3 2 3 3
5 5 10 8 3 1 4 5 7 3 2 2 2 4 6 9 10 9 9 9 9 10 10 10 10 8 9 9 7 6 7 6 6 7 6 5 5 5 6 6 6 5 5 5 4 2 2 3 2
9 8 6 6 5 2 3 3 4 2 2 1 2 4 5 7 8 8 9 9 8 8 8 8 9 10 9 9 8 7 7 7 6 6 7 6 6 6 7 7 6 5 4 4 4 2 2 3 2
1 3 5 5 6 7 3 7 7 7 7 5 3 4 7 7 8 7 7 8 8 7 8 8 8 8 8 8 7 7 7 6 6 6 6 6 5 6 7 7 6 5 4 4 4 3 2 3 2
5 4 6 5 3 5 5 7 3 7 6 5 4 4 6 7 6 6 7 6 6 6 7 8 8 8 8 7 6 6 6 6 6 6 6 6 5 5 6 6 6 5 5 4 5 4 3 3 3
Wind_Direction
203 208 180 64 40 31 288 264 109 82 71 72 86 93 95 88 128 143 132 135 135 141 147 146 144 141 139 136 133 131 128 125 123 121 119 117 116 116 116 116 116 115 115 115 115 115 114 114 115
198 195 106 49 59 2 290 220 111 109 115 108 92 93 86 73 91 110 123 140 137 140 143 145 143 141 139 137 136 135 132 130 128 127 125 123 121 120 119 118 118 119 118 118 118 118 117 116 118
218 184 83 58 55 229 269 254 154 124 117 112 100 81 93 115 119 132 147 142 135 138 141 147 144 143 141 139 139 138 135 134 133 131 129 128 125 122 121 121 120 119 119 120 120 120 119 119 119
157 54 50 54 266 253 246 249 180 125 113 91 97 79 74 105 134 136 140 141 136 137 141 148 145 144 142 141 141 140 139 138 136 133 132 131 129 126 124 122 120 119 120 121 121 121 122 122 122
94 85 58 291 264 255 250 230 163 136 130 108 101 95 63 47 117 131 141 142 138 138 140 146 145 144 144 143 143 142 142 140 139 137 135 133 131 128 126 125 124 123 123 123 123 123 125 125 126
69 95 85 270 268 271 262 197 139 120 112 113 110 107 81 115 127 140 144 143 140 140 140 144 146 146 147 147 146 145 143 142 141 141 139 137 135 132 130 129 127 126 126 125 124 125 126 125 123
156 153 221 243 274 283 250 203 143 126 121 137 132 118 129 144 142 142 141 138 137 139 139 142 146 148 149 148 147 146 146 145 145 144 141 139 138 136 135 132 131 132 132 131 130 130 130 125 121
172 131 269 256 254 265 245 198 139 128 128 133 133 143 166 168 141 136 135 135 136 139 142 143 140 141 143 146 148 149 148 148 148 146 144 143 143 141 140 137 139 139 140 139 138 137 136 128 122
154 100 253 245 243 262 273 139 97 92 112 107 111 148 151 145 138 135 134 131 140 146 150 146 141 140 138 144 153 151 151 152 151 150 151 143 134 136 140 147 149 147 147 148 147 148 145 136 125
144 186 237 236 246 271 287 139 133 111 105 89 78 94 131 142 146 148 152 152 156 158 158 152 150 150 151 157 145 145 148 149 142 146 141 133 139 151 153 164 158 155 153 155 160 169 166 134 90
187 216 250 265 267 273 292 332 116 134 146 176 161 152 149 150 154 159 161 160 161 159 158 158 157 158 161 148 147 144 137 138 141 152 149 148 144 144 138 144 153 154 156 148 166 179 190 167 167
245 261 266 273 283 294 288 187 95 148 180 165 155 154 157 162 166 167 163 161 158 161 161 160 159 159 158 148 155 151 151 151 158 171 164 149 143 144 148 148 153 158 160 165 163 186 214 220 192
261 273 281 278 293 297 341 89 130 147 129 132 138 145 157 166 165 159 154 158 159 162 163 163 160 160 157 154 164 161 165 166 167 168 165 157 153 156 159 164 169 179 170 170 171 180 178 178 155
273 295 301 295 299 288 123 341 107 163 131 130 139 151 161 168 162 153 154 162 167 163 161 160 161 159 155 161 167 162 165 165 160 159 163 158 155 155 156 157 165 178 176 170 164 168 158 158 140
309 317 315 300 301 287 69 349 252 153 134 134 139 149 157 166 163 163 165 167 165 162 159 158 161 159 161 166 171 164 164 161 155 158 160 158 155 155 153 154 163 170 165 155 135 131 113 129 124
337 336 311 294 298 278 98 263 260 149 140 144 146 148 153 166 173 165 163 162 163 157 159 163 165 163 164 164 160 155 156 154 153 151 156 156 153 149 145 148 158 157 143 136 130 121 109 98 115
340 303 289 298 293 293 106 236 244 163 144 144 142 144 146 163 172 164 161 159 159 160 161 165 161 163 161 156 146 141 139 147 151 147 155 152 148 145 141 143 148 139 128 133 144 118 126 125 133
265 280 289 290 291 310 13 234 192 169 147 148 152 150 159 175 180 167 163 160 160 160 161 160 158 159 152 145 137 128 124 137 140 149 157 148 143 143 136 136 131 124 119 119 117 117 109 127 155
259 278 282 282 280 311 176 249 208 168 148 148 161 164 160 163 168 160 158 158 157 157 159 161 160 158 155 154 150 145 146 149 153 165 157 150 143 140 138 132 128 129 130 140 133 117 106 95 109
264 274 281 287 290 51 95 59 238 174 167 165 171 166 163 155 152 162 167 166 166 165 166 165 164 163 162 159 153 151 147 152 158 155 154 157 149 148 145 138 141 137 126 123 122 119 114 74 111
266 258 261 268 313 21 82 352 311 280 123 136 152 161 164 163 161 162 168 171 169 169 172 172 168 164 162 154 140 132 112 101 122 153 171 174 158 151 142 147 143 142 141 147 145 132 130 129 43
263 260 257 266 341 310 61 263 284 280 59 153 158 157 164 160 161 163 165 172 178 177 173 169 167 165 164 156 153 154 156 162 179 176 173 172 164 154 150 147 142 141 142 148 157 143 137 132 117
246 257 258 264 104 28 360 99 290 350 269 235 198 173 174 170 170 177 176 177 179 176 173 169 165 167 167 163 165 165 164 166 161 159 159 166 168 160 154 149 144 142 145 153 147 133 130 130 140
253 292 3 41 67 21 282 150 276 249 225 234 210 180 181 174 177 178 170 165 173 173 170 167 167 170 169 166 168 170 168 164 161 166 169 172 170 165 162 154 149 147 151 158 155 144 139 135 131
248 95 25 357 9 262 269 199 247 251 234 210 200 197 184 173 172 170 167 168 173 173 172 170 170 173 175 173 174 177 176 170 172 173 177 174 174 182 182 164 159 156 162 161 152 143 148 149 143
220 147 159 193 220 262 299 241 259 276 269 202 176 181 170 168 172 176 177 174 175 176 174 172 174 177 178 178 180 178 173 169 175 177 176 181 182 185 180 169 166 168 166 162 153 145 159 157 155
195 192 173 146 168 165 278 283 305 335 8 43 82 148 166 172 175 178 177 174 175 177 179 177 175 176 181 182 178 175 172 174 179 179 179 182 181 180 176 170 168 173 167 160 154 156 173 169 176
181 173 109 122 155 213 270 261 244 252 244 209 158 172 176 170 168 171 177 177 178 179 178 177 179 182 181 181 182 183 180 180 181 175 180 183 181 173 165 169 168 168 166 160 158 163 172 173 191
155 132 127 131 151 153 210 259 224 193 193 180 185 178 168 165 169 170 179 178 174 173 175 177 179 177 179 182 184 179 179 179 176 177 181 177 172 165 166 167 164 165 169 166 165 176 176 190 216
151 160 138 147 212 161 168 255 264 173 169 154 158 160 155 148 158 165 164 160 162 174 180 180 177 177 179 178 176 177 173 170 171 176 175 164 159 158 160 159 161 168 173 175 177 191 192 196 214